CAPE
2191 1856 1254 864 347 212 183 70 41 44 56 52 23 48 39 11 0 2 0 5 3 2
1544 1309 834 353 131 51 18 1 2 1 19 41 30 25 25 0 1 13 12 13 21 28
936 493 189 63 13 13 0 0 0 24 19 24 27 30 4 0 2 3 9 12 23 20
139 31 0 0 0 0 0 0 0 0 0 0 0 6 4 6 0 19 15 16 22 16
0 4 0 0 0 0 0 0 0 0 0 0 0 0 0 3 3 8 12 22 22 22
0 0 0 0 0 0 0 0 0 0 0 1 2 6 10 2 0 0 0 14 21 19
0 1 7 12 14 14 16 12 7 7 3 4 1 0 0 0 0 0 0 0 15 27
0 0 7 5 4 6 8 9 11 10 1 0 0 0 0 0 0 0 0 0 17 23
0 0 0 0 12 6 0 0 0 0 0 0 0 0 0 0 0 0 0 0 5 4
0 0 0 0 0 0 0 0 0 0 0 0 0 0 0 0 0 0 0 0 0 0
0 0 0 0 0 0 0 0 0 0 0 0 0 0 0 0 0 0 0 0 0 0
0 0 0 0 0 0 0 0 0 0 0 0 0 0 0 0 0 0 0 0 0 0
0 0 0 0 0 0 0 0 0 0 0 0 0 0 0 0 0 0 0 0 0 5
0 0 0 0 0 0 0 0 0 0 0 0 0 0 0 0 0 0 0 0 12 15
CIN
-14 -29 -45 -67 -154 -140 -123 -178 -202 -129 -104 -96 -51 -37 -17 -136 -0 -1 -0 -2 -11 -9
-35 -38 -60 -63 -45 -148 -91 -35 -22 -111 -61 -40 -28 -12 -8 -0 -13 -3 -3 -9 -12 -13
-68 -66 -64 -205 -240 -203 -0 -0 -0 -23 -19 -16 -18 -25 -14 -1 -8 -7 -6 -7 -9 -11
-123 -116 -0 -0 -0 -0 -0 -0 -0 -0 -0 -0 -0 -6 -3 -3 -1 -5 -12 -18 -13 -15
-4 -0 -0 -0 -0 -0 -0 -0 -0 -0 -0 -0 -0 -0 -0 -6 -19 -24 -18 -12 -9 -10
-0 -0 -0 -0 -0 -0 -0 -0 -0 -0 -0 -1 -3 -13 -16 -0 -0 -0 -5 -10 -10 -16
-0 -0 -0 -1 -1 -1 -2 -2 -1 -1 -0 -11 -0 -0 -0 -0 -0 -0 -0 -0 -15 -12
-0 -0 -1 -2 -2 -1 -2 -0 -2 -11 -0 -0 -0 -0 -0 -0 -0 -0 -0 -0 -6 -6
-0 -0 -0 -0 -0 -15 -0 -0 -0 -0 -0 -0 -0 -0 -0 -0 -0 -0 -0 -0 -0 -0
-0 -0 -0 -0 -0 -0 -0 -0 -0 -0 -0 -0 -0 -0 -0 -0 -0 -0 -0 -0 -0 -0
-0 -0 -0 -0 -0 -0 -0 -0 -0 -0 -0 -0 -0 -0 -0 -0 -0 -0 -0 -0 -0 -0
-0 -0 -0 -0 -0 -0 -0 -0 -0 -0 -0 -0 -0 -0 -0 -0 -0 -0 -0 -0 -0 -0
-0 -0 -0 -0 -0 -0 -0 -0 -0 -0 -0 -0 -0 -0 -0 -0 -0 -0 -0 -0 -0 -0
-0 -0 -0 -0 -0 -0 -0 -0 -0 -0 -0 -0 -0 -0 -0 -0 -0 -0 -0 -0 -0 -0
Wind_Speed
50 45 45 45 45 44 42 nan nan nan nan nan nan nan nan nan nan nan nan nan nan nan
47 48 48 44 44 nan nan nan nan nan nan nan nan nan nan nan nan nan nan nan nan nan
47 49 49 nan nan nan nan nan nan nan nan nan nan nan nan nan nan nan nan nan nan nan
48 nan nan nan nan nan nan nan nan nan nan nan nan nan nan nan nan nan nan nan nan nan
nan nan nan nan nan nan nan nan nan nan nan nan nan nan nan nan nan nan nan nan nan nan
nan nan nan nan nan nan nan nan nan nan nan nan nan nan nan nan nan nan nan nan nan nan
nan nan nan nan nan nan nan nan nan nan nan nan nan nan nan nan nan nan nan nan nan nan
nan nan nan nan nan nan nan nan nan nan nan nan nan nan nan nan nan nan nan nan nan nan
nan nan nan nan nan nan nan nan nan nan nan nan nan nan nan nan nan nan nan nan nan nan
nan nan nan nan nan nan nan nan nan nan nan nan nan nan nan nan nan nan nan nan nan nan
nan nan nan nan nan nan nan nan nan nan nan nan nan nan nan nan nan nan nan nan nan nan
nan nan nan nan nan nan nan nan nan nan nan nan nan nan nan nan nan nan nan nan nan nan
nan nan nan nan nan nan nan nan nan nan nan nan nan nan nan nan nan nan nan nan nan nan
nan nan nan nan nan nan nan nan nan nan nan nan nan nan nan nan nan nan nan nan nan nan
Wind_Direction
280 284 288 291 291 292 292 nan nan nan nan nan nan nan nan nan nan nan nan nan nan nan
281 283 286 288 288 nan nan nan nan nan nan nan nan nan nan nan nan nan nan nan nan nan
274 279 284 nan nan nan nan nan nan nan nan nan nan nan nan nan nan nan nan nan nan nan
276 nan nan nan nan nan nan nan nan nan nan nan nan nan nan nan nan nan nan nan nan nan
nan nan nan nan nan nan nan nan nan nan nan nan nan nan nan nan nan nan nan nan nan nan
nan nan nan nan nan nan nan nan nan nan nan nan nan nan nan nan nan nan nan nan nan nan
nan nan nan nan nan nan nan nan nan nan nan nan nan nan nan nan nan nan nan nan nan nan
nan nan nan nan nan nan nan nan nan nan nan nan nan nan nan nan nan nan nan nan nan nan
nan nan nan nan nan nan nan nan nan nan nan nan nan nan nan nan nan nan nan nan nan nan
nan nan nan nan nan nan nan nan nan nan nan nan nan nan nan nan nan nan nan nan nan nan
nan nan nan nan nan nan nan nan nan nan nan nan nan nan nan nan nan nan nan nan nan nan
nan nan nan nan nan nan nan nan nan nan nan nan nan nan nan nan nan nan nan nan nan nan
nan nan nan nan nan nan nan nan nan nan nan nan nan nan nan nan nan nan nan nan nan nan
nan nan nan nan nan nan nan nan nan nan nan nan nan nan nan nan nan nan nan nan nan nan